Location: Holbach
(51.5399°N, 10.6036°E)
Time: 01:42:11
(UTC+00:00)

Cosmos 1025 Rocket - Pass Details

Date: 18 September 2020
Orbit: 595 x 617 km, 82.5° (Epoch: 23 October)

Event Time Altitude Azimuth Distance (km) Brightness Sun altitude
Rises 18:44:42 0° 350° (N) 2,885 6.9 -13.1°
Reaches altitude 10° 18:46:55 10° 351° (N) 1,979 6.0 -13.4°
Maximum altitude 18:51:19 81° 79° (E) 629 3.0 -14.0°
Drops below altitude 10° 18:55:42 10° 167° (SSE) 1,974 5.3 -14.7°
Enters shadow 18:56:08 - 167° (SSE) 2,149 5.5 -14.7°
